Location: *
(40.7873°S, 98.7174°E)
Time: 17:12:50
(UTC+00:00)

GPS 2-04 Rocket1 - Visible Passes

Search period start: 06 October 2022 00:00
Search period end: 16 October 2022 00:00
Orbit: 401 x 500 km, 35.6° (Epoch: 05 October)

Date Brightness Start Highest point End Pass type
(mag) Time Alt. Az. Time Alt. Az. Time Alt. Az.
10 Oct 4.0 13:00:48 10° NNW 13:03:04 20° N 13:03:04 20° N visible
11 Oct 4.1 12:21:57 10° NNW 12:24:21 18° NNE 12:26:19 12° ENE visible
11 Oct 5.0 13:59:18 10° WNW 13:59:52 14° WNW 13:59:52 14° WNW visible
12 Oct 3.4 13:20:13 10° WNW 13:22:56 31° N 13:22:56 31° N visible
13 Oct 3.4 12:41:03 10° NW 12:44:09 31° N 12:45:51 20° ENE visible
13 Oct 5.4 14:19:16 10° WNW 14:19:22 11° WNW 14:19:22 11° WNW visible
14 Oct 3.8 13:39:58 10° WNW 13:42:09 27° NW 13:42:09 27° NW visible
15 Oct 3.2 13:00:39 10° WNW 13:03:47 34° N 13:04:48 28° NNE visible
